Weather in Chernaya

Ukraine / Khmelnitsky District     49°52′28″N   27°26′28″E
temp.,
°C
wind,
m/s
gust,
m/s
humid.,
%
clouds,
%
prec.,
mm/h
press.,
hPa
HPBL,
m
24 june, thu
thu2400:00+21ne2294100 2.8 101722
03:00+20ne22965 2.8 101723
06:00+21ene22933 0.0 101716
09:00+25e228125 0.0 1017312
12:00+28ese22635 0.0 10171029
15:00+30ese225422 0.0 10171443
18:00+30ese11565 0.0 10161374
21:00+25s11753 0.0 101611
25 june, fri
fri2500:00+23sse22862 0.0 101621
03:00+21se339155 0.0 101531
06:00+21sse349116 0.0 101560
09:00+26se347439 0.0 1015310
12:00+29sse465986 0.0 1015893
15:00+30s465775 0.0 10141198
18:00+29s46605 0.0 1013719
21:00+24ssw3478100 0.0 101347
26 june, sat
sat2600:00+20wnw228566 0.1 101432
03:00+17nw359449 1.4 101592
06:00+17n349182 0.2 101492
09:00+21nnw348495 1.3 1015357
12:00+23nw3378100 0.1 1015620
15:00+23nw4481100 0.1 1015671
18:00+23nw337742 0.0 1013736
21:00+20nnw379013 0.0 1014208
27 june, sun
sun2700:00+18nnw499742 0.0 1014229
03:00+16nnw379999 0.0 1014189
06:00+16nw3699100 0.1 1015181
09:00+20n5788100 0.1 1015519
12:00+22nnw4578100 0.0 1015750
15:00+24nnw5669100 0.0 10151133
18:00+23nnw4677100 0.3 1014767
21:00+19nnw3889100 1.4 1015167
28 june, mon
mon2800:00+17nnw379480 0.4 1015139
03:00+16nnw379649 0.4 1016145
06:00+16nw49963 0.0 1016231
09:00+19nnw57790 0.0 1017471
12:00+23nnw67610 0.0 10161535
15:00+25nnw565371 0.0 10162212
18:00+23nw476976 0.0 1015296
21:00+19wnw49809 0.1 1016185